Погода в Соцземледельском

Россия / Саратовская область     51°39′23″N   43°41′03″E
темп.,
°C
ветер,
м/с
пор.,
м/с
влажн.,
%
обл.,
%
осадки,
мм/ч
давл.,
гПа
погр.,
м
10 мая, пн
пн1001:00+7ссз51098100 4.6 1013442
04:00+7ссз51097100 6.1 1013467
07:00+7ссз61198100 2.2 1013411
10:00+8с71197100 7.7 1012303
13:00+16всв81377100 0.7 10111333
16:00+17всв4971100 2.7 1010351
19:00+15юв61280100 0.4 1011314
22:00+12св3693100 0.6 1013168
11 мая, вт
вт1101:00+12всв4993100 0.2 1013342
04:00+8юв41095100 3.8 1016529
07:00+8юв598666 3.4 1020799
10:00+10юв696550 3.4 10221358
13:00+13юв795866 0.0 10231653
16:00+13юв685890 0.0 10251619
19:00+13юв146894 0.0 1026484
22:00+9св117414 0.0 102610
12 мая, ср
ср1201:00+8ссв4581100 0.0 102669
04:00+8с3889100 0.7 1024222
07:00+8сз3598100 1.6 1021200
10:00+9з3499100 3.8 1020256
13:00+10сз2391100 3.3 1021232
16:00+13в238168 3.3 1022620
19:00+14юв1385100 0.0 1022180
22:00+12св3592100 0.0 102182
13 мая, чт
чт1301:00+13св3896100 0.1 1020188
04:00+13в51190100 0.1 1019337
07:00+13в6128694 1.1 1018490
10:00+14вюв51088100 1.4 1018448
13:00+17юв5782100 0.0 1018719
16:00+21ююв576522 0.6 10171305
19:00+19ю35775 2.2 1018208
22:00+16юв118317 2.3 101811
14 мая, пт
пт1401:00+15в228752 0.0 101812
04:00+14вюв2289100 0.0 101918
07:00+16вюв3486100 0.0 101988
10:00+21вюв466829 0.0 1019423
13:00+25юв6757100 0.0 10181208
16:00+25ююв685262 0.0 10181249
19:00+23юв510651 0.0 1017316
22:00+18юв411755 0.0 1017166